Weather Roundup
Issued by NWS Springfield, MO

Home | Current Version | Previous Version | Text Only | Print | Product List | Glossary On
Versions: 1 2 3 4 5 6 7 8 9 10 11 12 13 14 15 16 17 18 19 20 21 22 23 24 25 26 27 28 29 30 31 32 33 34 35 36 37 38 39 40 41 42 43 44 45 46 47 48 49 50
874
NZUS99 KSGF 131557
HRRSGF

HOURLY WEATHER
NATIONAL WEATHER SERVICE SPRINGFIELD MO
1000 AM CST SAT FEB 13 2016

......SGF CWA......

CITY           SKY/WX    TMP DP  RH WIND       PRES   REMARKS
SPRINGFIELD    CLOUDY    25   0  33 E8        30.53S WCI  16
JOPLIN         SUNNY     27   2  34 E12       30.53F WCI  17
WEST PLAINS    CLOUDY    23  -3  32 NE8       30.55F WCI  14
BRANSON        MOSUNNY   28   5  37 E5        30.54F WCI  23

......SURROUNDING SGF CWA......

CITY           SKY/WX    TMP DP  RH WIND       PRES   REMARKS
CHANUTE        CLOUDY    27   4  37 E14       30.53F WCI  16
PARSONS        MOSUNNY   27   5  39 E8        30.53F WCI  19
EMPORIA        CLOUDY    24   4  42 E14G20    30.50F WCI  12
HARRISON AR    MOSUNNY   29   6  38 E9        30.53F WCI  20

......KANSAS AND MISSOURI......

CITY           SKY/WX    TMP DP  RH WIND       PRES   REMARKS
KANSAS CTY INT CLOUDY    17   3  54 SE8       30.57F WCI   7
SEDALIA        CLOUDY    17   3  54 E9        30.61F WCI   6
ST JOSEPH      CLOUDY    15   2  56 E8        30.61F WCI   4
ST LOUIS       CLOUDY    16  -1  47 N7        30.67F WCI   6
WICHITA        CLOUDY    28   7  41 SE13      30.47S WCI  17
TOPEKA         CLOUDY    21   3  45 E8        30.56F WCI  11
OLATHE         CLOUDY    17   2  51 E10       30.55F WCI   5

......TENNESSEE......

CITY           SKY/WX    TMP DP  RH WIND       PRES   REMARKS
MEMPHIS        NOT AVBL
NASHVILLE      SUNNY     26   4  38 N15       30.56F WCI  14

......ARKANSAS.......

CITY           SKY/WX    TMP DP  RH WIND       PRES   REMARKS
FAYETTEVILLE   SUNNY     33  12  41 E7        30.49F WCI  27
FT SMITH       SUNNY     41  15  35 E15       30.51F
LITTLE ROCK    MOSUNNY   36   9  32 E13       30.60S WCI  27

......OKLAHOMA.......

CITY           SKY/WX    TMP DP  RH WIND       PRES   REMARKS
TULSA          MOSUNNY   36  12  37 E9        30.50F WCI  29
PONCA CITY     MOSUNNY   32   9  38 E10       30.47S WCI  24
MCALESTER      SUNNY     43  25  49 E8        30.45F
OKLAHOMA CITY  MOSUNNY   37  21  52 E12       30.42S WCI  29

......IOWA............

CITY           SKY/WX    TMP DP  RH WIND       PRES   REMARKS
DES MOINES     NOT AVBL
QUAD CITIES    SUNNY     11  -8  42 NW5       30.66S WCI   3

......ILLINOIS........

CITY           SKY/WX    TMP DP  RH WIND       PRES   REMARKS
QUINCY         SUNNY     10  -4  53 CALM      30.66F
CHICAGO        MOSUNNY    8  -8  48 NW10      30.59R WCI  -6




USA.gov is the U.S. government's official web portal to all federal, state and local government web resources and services.